HISTORICAL SENSOR DATA

Sensor Data Report

DB LIVE
CURRENT TIME--:--:--
DEVICE NETWORK Gateway Status
13 ESP · realtime ~1s · history 60s
Weather WS-MOD-01
ONLINE
Actuator ACT-MOD-01
OFFLINE
Mainboard L3 MB-L3-01
ONLINE
Mainboard L5 MB-L5-01
ONLINE
Remote AC AC-REMOTE-01
ONLINE
PZEM L3-01 PWR-L3-01
OFFLINE
PZEM L3-02 PWR-L3-02
OFFLINE
PZEM L3-03 PWR-L3-03
OFFLINE
PZEM L3-04 PWR-L3-04
OFFLINE
PZEM L5-01 PWR-L5-01
ONLINE
PZEM L5-02 PWR-L5-02
ONLINE
PZEM L5-03 PWR-L5-03
OFFLINE
PZEM L5-04 PWR-L5-04
OFFLINE
REPORT FILTER

Periode & Sensor

DATABASE HISTORY
RESET
QUICK RANGE Hari ini 7 hari 30 hari
PERIODE07 Sep 2026sampai 07 Sep 2026
TOTAL DATA25,156sensor readings
MINIMUM0.00sesuai filter
AVERAGE35.96sesuai filter
MAXIMUM912.00sesuai filter
REPORT RESULT

Data Sensor

07/09/2026 — 07/09/2026 EXPORT CSV
NOTANGGALWAKTUDEVICECHANNELSENSORVALUEUNIT
1 07/09/2026 06:12:00 MB-L3-01Mainboard Lantai 3 L3-SHT-01-T SHT20 1 Temperature 27.80 °C
2 07/09/2026 06:12:00 PWR-L5-01Power Meter L5 PZEM 01 PZEM-L5-01-ENERGY PZEM L5-01 Energy 0.13 kWh
3 07/09/2026 06:12:00 MB-L5-01Mainboard Lantai 5 L5-RAD-01 Radiation 1 1.00 W/m²
4 07/09/2026 06:12:00 MB-L3-01Mainboard Lantai 3 L3-AI-02 Analog Input 2 3.12 V
5 07/09/2026 06:12:00 AC-REMOTE-01Remote AC AC-MODE AC Operating Mode 1.00 code
6 07/09/2026 06:12:00 MB-L5-01Mainboard Lantai 5 L5-SHT-01-RH SHT20 1 Humidity 47.50 %RH
7 07/09/2026 06:12:00 MB-L5-01Mainboard Lantai 5 L5-AI-03 Analog Input 3 3.05 V
8 07/09/2026 06:12:00 WS-MOD-01Weather Station Module WS-TEMP Suhu Udara 18.40 °C
9 07/09/2026 06:12:00 MB-L3-01Mainboard Lantai 3 L3-RAD-02 Radiation 2 1.00 W/m²
10 07/09/2026 06:12:00 PWR-L5-02Power Meter L5 PZEM 02 PZEM-L5-02-FREQ PZEM L5-02 Frequency 49.90 Hz
11 07/09/2026 06:12:00 MB-L5-01Mainboard Lantai 5 L5-BGT-02 Black Globe Temperature 2 25.90 °C
12 07/09/2026 06:12:00 MB-L3-01Mainboard Lantai 3 L3-SHT-02-T SHT20 2 Temperature 28.00 °C
13 07/09/2026 06:12:00 PWR-L5-01Power Meter L5 PZEM 01 PZEM-L5-01-PF PZEM L5-01 Power Factor 0.38
14 07/09/2026 06:12:00 MB-L5-01Mainboard Lantai 5 L5-ST-01 Surface Temperature 1 22.60 °C
15 07/09/2026 06:12:00 MB-L3-01Mainboard Lantai 3 L3-AI-04 Analog Input 4 3.12 V
16 07/09/2026 06:12:00 PWR-L5-01Power Meter L5 PZEM 01 PZEM-L5-01-VOLT PZEM L5-01 Voltage 223.70 V
17 07/09/2026 06:12:00 MB-L5-01Mainboard Lantai 5 L5-SHT-02-RH SHT20 2 Humidity 46.60 %RH
18 07/09/2026 06:12:00 WS-MOD-01Weather Station Module WS-PRES Tekanan Udara 911.00 hPa
19 07/09/2026 06:12:00 MB-L5-01Mainboard Lantai 5 L5-LUX-06 Illuminance / LUX 6 163.70 lux
20 07/09/2026 06:12:00 MB-L5-01Mainboard Lantai 5 L5-AI-05 Analog Input 5 3.05 V
21 07/09/2026 06:12:00 MB-L3-01Mainboard Lantai 3 L3-LUX-06 Illuminance / LUX 6 276.80 lux
22 07/09/2026 06:12:00 MB-L5-01Mainboard Lantai 5 L5-LUX-01 Illuminance / LUX 1 104.40 lux
23 07/09/2026 06:12:00 MB-L3-01Mainboard Lantai 3 L3-LUX-02 Illuminance / LUX 2 139.90 lux
24 07/09/2026 06:12:00 MB-L3-01Mainboard Lantai 3 L3-SHT-03-T SHT20 3 Temperature 28.20 °C
25 07/09/2026 06:12:00 PWR-L5-02Power Meter L5 PZEM 02 PZEM-L5-02-CURR PZEM L5-02 Current 0.00 A
26 07/09/2026 06:12:00 MB-L5-01Mainboard Lantai 5 L5-HFT-01 Heat Flow Temperature 1 22.50 °C
27 07/09/2026 06:12:00 MB-L5-01Mainboard Lantai 5 L5-SHT-03-RH SHT20 3 Humidity 47.10 %RH
28 07/09/2026 06:12:00 MB-L3-01Mainboard Lantai 3 L3-AI-06 Analog Input 6 3.12 V
29 07/09/2026 06:12:00 PWR-L5-01Power Meter L5 PZEM 01 PZEM-L5-01-POWER PZEM L5-01 Active Power 10.70 W
30 07/09/2026 06:12:00 MB-L3-01Mainboard Lantai 3 L3-AI-01 Analog Input 1 3.12 V
31 07/09/2026 06:12:00 AC-REMOTE-01Remote AC AC-SETPOINT AC Set Temperature 23.00 °C
32 07/09/2026 06:12:00 MB-L5-01Mainboard Lantai 5 L5-SHT-01-T SHT20 1 Temperature 27.80 °C
33 07/09/2026 06:12:00 WS-MOD-01Weather Station Module WS-WIND Kecepatan Angin 9.82 m/s
34 07/09/2026 06:12:00 MB-L5-01Mainboard Lantai 5 L5-AI-02 Analog Input 2 3.05 V
35 07/09/2026 06:12:00 MB-L3-01Mainboard Lantai 3 L3-LUX-04 Illuminance / LUX 4 84.10 lux
36 07/09/2026 06:12:00 MB-L5-01Mainboard Lantai 5 L5-LUX-03 Illuminance / LUX 3 159.80 lux
37 07/09/2026 06:12:00 PWR-L5-02Power Meter L5 PZEM 02 PZEM-L5-02-ENERGY PZEM L5-02 Energy 0.04 kWh
38 07/09/2026 06:12:00 MB-L5-01Mainboard Lantai 5 L5-BGT-01 Black Globe Temperature 1 25.90 °C
39 07/09/2026 06:12:00 MB-L3-01Mainboard Lantai 3 L3-RAD-01 Radiation 1 1.00 W/m²
40 07/09/2026 06:12:00 MB-L3-01Mainboard Lantai 3 L3-SHT-01-RH SHT20 1 Humidity 47.20 %RH
41 07/09/2026 06:12:00 PWR-L5-01Power Meter L5 PZEM 01 PZEM-L5-01-FREQ PZEM L5-01 Frequency 49.90 Hz
42 07/09/2026 06:12:00 MB-L5-01Mainboard Lantai 5 L5-RAD-02 Radiation 2 1.00 W/m²
43 07/09/2026 06:12:00 MB-L5-01Mainboard Lantai 5 L5-SHT-02-T SHT20 2 Temperature 28.00 °C
44 07/09/2026 06:12:00 MB-L3-01Mainboard Lantai 3 L3-AI-03 Analog Input 3 3.12 V
45 07/09/2026 06:12:00 AC-REMOTE-01Remote AC AC-FAN AC Fan Speed 0.00 code
46 07/09/2026 06:12:00 WS-MOD-01Weather Station Module WS-RH Kelembapan Udara 80.40 %RH
47 07/09/2026 06:12:00 MB-L5-01Mainboard Lantai 5 L5-AI-04 Analog Input 4 3.05 V
48 07/09/2026 06:12:00 MB-L3-01Mainboard Lantai 3 L3-LUX-05 Illuminance / LUX 5 477.70 lux
49 07/09/2026 06:12:00 MB-L3-01Mainboard Lantai 3 L3-LUX-01 Illuminance / LUX 1 86.10 lux
50 07/09/2026 06:12:00 PWR-L5-02Power Meter L5 PZEM 02 PZEM-L5-02-PF PZEM L5-02 Power Factor 0.00
51 07/09/2026 06:12:00 MB-L5-01Mainboard Lantai 5 L5-BGT-03 Black Globe Temperature 3 25.70 °C
52 07/09/2026 06:12:00 MB-L3-01Mainboard Lantai 3 L3-SHT-02-RH SHT20 2 Humidity 46.60 %RH
53 07/09/2026 06:12:00 PWR-L5-02Power Meter L5 PZEM 02 PZEM-L5-02-VOLT PZEM L5-02 Voltage 223.60 V
54 07/09/2026 06:12:00 MB-L5-01Mainboard Lantai 5 L5-ST-02 Surface Temperature 2 22.10 °C
55 07/09/2026 06:12:00 MB-L3-01Mainboard Lantai 3 L3-AI-05 Analog Input 5 3.12 V
56 07/09/2026 06:12:00 PWR-L5-01Power Meter L5 PZEM 01 PZEM-L5-01-CURR PZEM L5-01 Current 0.13 A
57 07/09/2026 06:12:00 MB-L5-01Mainboard Lantai 5 L5-SHT-03-T SHT20 3 Temperature 28.00 °C
58 07/09/2026 06:12:00 MB-L5-01Mainboard Lantai 5 L5-AI-06 Analog Input 6 3.05 V
59 07/09/2026 06:12:00 WS-MOD-01Weather Station Module WS-DIR Arah Angin 76.80 °
60 07/09/2026 06:12:00 AC-REMOTE-01Remote AC AC-POWER AC Power State 1.00 state
61 07/09/2026 06:12:00 MB-L5-01Mainboard Lantai 5 L5-AI-01 Analog Input 1 3.05 V
62 07/09/2026 06:12:00 MB-L3-01Mainboard Lantai 3 L3-LUX-03 Illuminance / LUX 3 154.50 lux
63 07/09/2026 06:12:00 MB-L5-01Mainboard Lantai 5 L5-LUX-02 Illuminance / LUX 2 480.80 lux
64 07/09/2026 06:12:00 MB-L3-01Mainboard Lantai 3 L3-SHT-03-RH SHT20 3 Humidity 46.50 %RH
65 07/09/2026 06:12:00 PWR-L5-02Power Meter L5 PZEM 02 PZEM-L5-02-POWER PZEM L5-02 Active Power 0.00 W
66 07/09/2026 06:12:00 MB-L5-01Mainboard Lantai 5 L5-HFT-02 Heat Flow Temperature 2 21.90 °C
67 07/09/2026 06:11:00 MB-L3-01Mainboard Lantai 3 L3-AI-04 Analog Input 4 3.12 V
68 07/09/2026 06:11:00 PWR-L5-01Power Meter L5 PZEM 01 PZEM-L5-01-VOLT PZEM L5-01 Voltage 223.80 V
69 07/09/2026 06:11:00 MB-L5-01Mainboard Lantai 5 L5-SHT-02-RH SHT20 2 Humidity 46.50 %RH
70 07/09/2026 06:11:00 WS-MOD-01Weather Station Module WS-PRES Tekanan Udara 911.00 hPa
71 07/09/2026 06:11:00 MB-L5-01Mainboard Lantai 5 L5-LUX-06 Illuminance / LUX 6 162.30 lux
72 07/09/2026 06:11:00 MB-L5-01Mainboard Lantai 5 L5-AI-05 Analog Input 5 3.05 V
73 07/09/2026 06:11:00 MB-L3-01Mainboard Lantai 3 L3-LUX-06 Illuminance / LUX 6 274.90 lux
74 07/09/2026 06:11:00 MB-L5-01Mainboard Lantai 5 L5-LUX-01 Illuminance / LUX 1 103.40 lux
75 07/09/2026 06:11:00 MB-L3-01Mainboard Lantai 3 L3-LUX-02 Illuminance / LUX 2 138.50 lux
76 07/09/2026 06:11:00 MB-L3-01Mainboard Lantai 3 L3-SHT-03-T SHT20 3 Temperature 28.20 °C
77 07/09/2026 06:11:00 PWR-L5-02Power Meter L5 PZEM 02 PZEM-L5-02-CURR PZEM L5-02 Current 0.00 A
78 07/09/2026 06:11:00 MB-L5-01Mainboard Lantai 5 L5-HFT-01 Heat Flow Temperature 1 22.50 °C
79 07/09/2026 06:11:00 MB-L5-01Mainboard Lantai 5 L5-SHT-03-RH SHT20 3 Humidity 47.10 %RH
80 07/09/2026 06:11:00 MB-L3-01Mainboard Lantai 3 L3-AI-06 Analog Input 6 3.12 V
81 07/09/2026 06:11:00 PWR-L5-01Power Meter L5 PZEM 01 PZEM-L5-01-POWER PZEM L5-01 Active Power 10.80 W
82 07/09/2026 06:11:00 MB-L3-01Mainboard Lantai 3 L3-AI-01 Analog Input 1 3.12 V
83 07/09/2026 06:11:00 AC-REMOTE-01Remote AC AC-SETPOINT AC Set Temperature 23.00 °C
84 07/09/2026 06:11:00 MB-L5-01Mainboard Lantai 5 L5-SHT-01-T SHT20 1 Temperature 27.80 °C
85 07/09/2026 06:11:00 WS-MOD-01Weather Station Module WS-WIND Kecepatan Angin 9.31 m/s
86 07/09/2026 06:11:00 MB-L5-01Mainboard Lantai 5 L5-AI-02 Analog Input 2 3.05 V
87 07/09/2026 06:11:00 MB-L3-01Mainboard Lantai 3 L3-LUX-04 Illuminance / LUX 4 83.40 lux
88 07/09/2026 06:11:00 MB-L5-01Mainboard Lantai 5 L5-LUX-03 Illuminance / LUX 3 158.20 lux
89 07/09/2026 06:11:00 PWR-L5-02Power Meter L5 PZEM 02 PZEM-L5-02-ENERGY PZEM L5-02 Energy 0.04 kWh
90 07/09/2026 06:11:00 MB-L5-01Mainboard Lantai 5 L5-BGT-01 Black Globe Temperature 1 26.00 °C
91 07/09/2026 06:11:00 MB-L3-01Mainboard Lantai 3 L3-RAD-01 Radiation 1 1.00 W/m²
92 07/09/2026 06:11:00 MB-L3-01Mainboard Lantai 3 L3-SHT-01-RH SHT20 1 Humidity 47.30 %RH
93 07/09/2026 06:11:00 PWR-L5-01Power Meter L5 PZEM 01 PZEM-L5-01-FREQ PZEM L5-01 Frequency 50.00 Hz
94 07/09/2026 06:11:00 MB-L5-01Mainboard Lantai 5 L5-RAD-02 Radiation 2 1.00 W/m²
95 07/09/2026 06:11:00 MB-L5-01Mainboard Lantai 5 L5-SHT-02-T SHT20 2 Temperature 28.10 °C
96 07/09/2026 06:11:00 MB-L3-01Mainboard Lantai 3 L3-AI-03 Analog Input 3 3.12 V
97 07/09/2026 06:11:00 AC-REMOTE-01Remote AC AC-FAN AC Fan Speed 0.00 code
98 07/09/2026 06:11:00 WS-MOD-01Weather Station Module WS-RH Kelembapan Udara 80.30 %RH
99 07/09/2026 06:11:00 MB-L5-01Mainboard Lantai 5 L5-AI-04 Analog Input 4 3.05 V
100 07/09/2026 06:11:00 MB-L3-01Mainboard Lantai 3 L3-LUX-05 Illuminance / LUX 5 472.80 lux
Menampilkan maksimal 100 data per halaman
PAGE 1 NEXT →